Creek Data

    Home     View Charts     View Raw Data     Messages

ID Distance Battery Voltage Battery Current Internal Temp Internal Humidity External Temp Solar Input rssi snr Time Stamp Record
64264 14.8 3.67 -5 44 50 44 0 -74 8 01/24/2026 04:30 AM 47020
64263 14.8 3.62 -34 45 50 45 0 -74 8 01/24/2026 04:15 AM 47019
64262 14.8 3.78 -5 45 50 45 0 -75 8 01/24/2026 04:00 AM 47018
64261 14.7 3.78 -5 45 50 45 0 -74 9 01/24/2026 03:45 AM 47017
64260 14.7 3.74 -5 45 50 45 0 -75 8 01/24/2026 03:30 AM 47016
64259 14.8 3.77 -5 45 50 46 0 -75 8 01/24/2026 03:15 AM 47015
64258 14.7 3.83 -5 45 50 46 0 -75 9 01/24/2026 03:00 AM 47014
64257 14.7 3.79 -5 46 50 46 0.1 -75 8 01/24/2026 02:45 AM 47013
64256 14.7 3.78 -5 45 50 46 0.1 -77 7 01/24/2026 02:30 AM 47012
64255 14.7 3.83 -5 45 50 46 0 -93 7 01/24/2026 02:15 AM 47011
64254 14.7 3.79 -5 45 50 46 0 -82 7 01/24/2026 02:00 AM 47010
64253 14.7 3.78 -5 45 50 46 0 -83 7 01/24/2026 01:45 AM 47009
64252 14.7 3.79 -5 45 50 46 0 -85 7 01/24/2026 01:30 AM 47008
64251 14.8 3.84 -5 45 50 45 0 -83 8 01/24/2026 01:00 AM 47006
64250 14.7 3.79 -5 45 50 45 0 -83 8 01/24/2026 12:45 AM 47005
64249 14.7 3.79 -5 45 50 45 0 -83 8 01/24/2026 12:30 AM 47004
64248 14.7 3.84 -5 45 50 45 0 -83 6 01/24/2026 12:15 AM 47003
64247 14.7 3.79 -5 45 50 45 0 -81 8 01/24/2026 12:00 AM 47002
64246 14.7 3.84 -5 45 50 45 0 -82 8 01/23/2026 11:45 PM 47001
64245 14.7 3.80 -5 45 50 45 0 -81 6 01/23/2026 11:30 PM 47000
64244 14.7 3.79 -5 45 50 45 0 -81 7 01/23/2026 11:15 PM 46999
64243 14.7 3.84 -5 45 50 45 0 -80 7 01/23/2026 11:00 PM 46998
64242 14.7 3.80 -5 45 50 45 0 -81 7 01/23/2026 10:45 PM 46997
64241 14.7 3.80 -5 45 50 45 0 -81 7 01/23/2026 10:30 PM 46996
64240 14.7 3.84 -5 45 50 45 0 -80 8 01/23/2026 10:15 PM 46995